Miscellaneous Local Product
Issued by NWS Hastings, NE

Home | Current Version | Previous Version | Text Only | Print | Product List | Glossary Off
Versions: 1 2 3 4 5 6 7 8 9 10 11 12 13 14 15 16 17 18 19 20 21 22 23 24 25 26 27 28 29 30 31 32 33 34 35 36 37 38 39 40 41 42 43 44 45 46 47 48 49 50

000
AXUS43 KGID 232102
MISGRI

GID CWA HOURLY WEATHER ROUNDUP
NATIONAL WEATHER SERVICE HASTINGS NE
400 PM CDT THU OCT 23 2014

NOTE: "FAIR" INDICATES FEW OR NO CLOUDS BELOW 12,000 FEET WITH NO
SIGNIFICANT WEATHER AND/OR OBSTRUCTIONS TO VISIBILITY.

...SOUTH CENTRAL NEBRASKA...

CITY           SKY/WX    TMP DP  RH WIND       PRES   REMARKS
GRAND ISLAND   SUNNY     63  54  72 S9        30.02F
HASTINGS       MOSUNNY   62  53  72 SW8       30.03F
KEARNEY        PTSUNNY   64  54  68 S12       30.03F
ORD            MOSUNNY   72  47  40 SW14      29.97F
YORK           SUNNY     70  52  52 SW7       30.02F
AURORA         SUNNY     64  56  73 SW9       30.02F
LEXINGTON      CLOUDY    69  53  55 S10       30.02S
HOLDREGE       PTSUNNY   59  54  83 S3        30.03F
HEBRON         SUNNY     74  51  44 SW7       30.02F

...NEBRASKA PANHANDLE...

CITY           SKY/WX    TMP DP  RH WIND       PRES   REMARKS
CHADRON        CLOUDY    72  36  26 SW10      29.93F
ALLIANCE       CLOUDY    71  31  22 W17       29.99F
SCOTTSBLUFF    SUNNY     76  33  21 W13       29.99F
SIDNEY         PTSUNNY   72  36  26 W15       30.05F

...WESTERN AND NORTH CENTRAL NEBRASKA...

CITY           SKY/WX    TMP DP  RH WIND       PRES   REMARKS
VALENTINE      CLOUDY    75  35  23 SW15      29.93F
AINSWORTH      CLOUDY    74  35  24 SW15      29.95S
ONEILL         SUNNY     74  39  28 S10       29.96F
BROKEN BOW     PTSUNNY   71  50  47 S12       29.99F
IMPERIAL       MOSUNNY   77  38  24 W7        30.01F
NORTH PLATTE   CLOUDY    75  40  28 S10       29.98F
MCCOOK         MOSUNNY   72  46  39 S10       30.02F

...EASTERN NEBRASKA...

CITY           SKY/WX    TMP DP  RH WIND       PRES   REMARKS
NORFOLK        SUNNY     71  43  36 S13       29.99F
SO SIOUX CITY  SUNNY     73  45  36 S10       29.98F
TEKAMAH        SUNNY     73  47  39 S10       29.99F
COLUMBUS       SUNNY     70  48  46 SW7       30.02F
ALBION         SUNNY     69  49  47 S13       29.99F
OMAHA EPPLEY   MOSUNNY   72  47  40 VRB3      30.01F
OFFUTT AFB     SUNNY     72  53  51 W2        30.01F
MILLARD        SUNNY     70  50  48 CALM      30.01F
LINCOLN        SUNNY     72  50  45 S6        30.02F
NEBRASKA CITY  SUNNY     71  43  36 CALM      30.02F
BEATRICE       SUNNY     73  53  49 S5        30.02S
FALLS CITY     SUNNY     73  54  51 CALM      30.01F

...NORTHERN KANSAS...

CITY           SKY/WX    TMP DP  RH WIND       PRES   REMARKS
GOODLAND       SUNNY     75  47  36 SW10      30.06F
HILL CITY      MOSUNNY   73  54  51 S8        30.04F
NORTON         CLEAR     70  50  49 S10       30.03
PHILLIPSBURG   SUNNY     64  64 100 CALM      30.04F
SMITH CENTER   CLOUDY    57  57 100 W5        30.05F
BELOIT         SUNNY     70  59  68 CALM      30.02F
HAYS           PTSUNNY   73  57  56 S9        30.04S
RUSSELL        CLOUDY    74  56  53 VRB7      30.02F
CONCORDIA      SUNNY     73  57  57 SW6       30.02F
SALINA         SUNNY     75  58  55 S5        30.02F
TOPEKA         SUNNY     70  63  78 SE6       30.03F



USA.gov is the U.S. government's official web portal to all federal, state and local government web resources and services.